FW6717 Weather Reports


time (UTC)temp
F
wind
direction
speed
knots
gust
knots
rain 1hr
in
rain 24hr
in
rain mn
in
humidity
%
barometer
mb
20260504050540 70 159 1.7 6.1 0.00 0.00 0.00 68 1017.8
20260504045539 69 128 1.7 4.3 0.00 0.00 0.00 68 1018.1
20260504045039 69 159 1.7 5.2 0.00 0.00 0.00 68 1018.1
20260504044546 69 144 1.7 4.3 0.00 0.00 0.00 68 1018.2
20260504044039 70 130 0.9 3.5 0.00 0.00 0.00 68 1018.3
20260504043539 70 145 0.9 3.5 0.00 0.00 0.00 68 1018.3
20260504043040 70 121 0.9 3.5 0.00 0.00 0.00 67 1018.4
20260504042538 70 154 1.7 4.3 0.00 0.00 0.00 67 1018.3
20260504042040 70 172 0.0 3.5 0.00 0.00 0.00 67 1018.3
20260504041539 70 139 0.9 5.2 0.00 0.00 0.00 66 1018.3
20260504041037 70 116 1.7 5.2 0.00 0.00 0.00 66 1018.3
20260504040538 70 124 1.7 6.1 0.00 0.00 0.00 66 1018.3
20260504040048 70 144 0.9 6.1 0.00 0.00 0.00 66 1018.3
20260504035540 70 157 1.7 5.2 0.00 0.00 0.00 66 1018.3
20260504035037 70 153 1.7 6.1 0.00 0.00 0.00 66 1018.4
20260504034637 70 139 1.7 6.1 0.00 0.00 0.00 65 1018.3
20260504034037 70 148 0.9 6.1 0.00 0.00 0.00 65 1018.2
20260504033537 70 122 2.6 6.1 0.00 0.00 0.00 65 1018.2
20260504033046 70 139 1.7 4.3 0.00 0.00 0.00 64 1018.2
20260504032537 70 132 0.9 6.1 0.00 0.00 0.00 64 1018.2
20260504032038 70 169 1.7 4.3 0.00 0.00 0.00 64 1018.2
20260504031536 70 151 0.9 4.3 0.00 0.00 0.00 64 1018.3
20260504031037 70 150 0.9 4.3 0.00 0.00 0.00 63 1018.1
20260504030535 71 152 1.7 4.3 0.00 0.00 0.00 63 1018.0
20260504030044 71 140 0.9 3.5 0.00 0.00 0.00 62 1018.0
20260504025536 71 141 1.7 3.5 0.00 0.00 0.00 62 1018.1
20260504025036 71 144 0.9 3.5 0.00 0.00 0.00 62 1018.2
20260504024537 71 144 1.7 3.5 0.00 0.00 0.00 62 1018.2
20260504024035 71 128 1.7 5.2 0.00 0.00 0.00 61 1018.1
20260504023535 71 167 2.6 5.2 0.00 0.00 0.00 61 1018.1
20260504023040 71 133 0.9 6.1 0.00 0.00 0.00 61 1018.1
20260504022535 71 135 2.6 6.1 0.00 0.00 0.00 61 1018.0
20260504022035 71 169 2.6 6.1 0.00 0.00 0.00 61 1017.9
20260504021535 71 129 1.7 4.3 0.00 0.00 0.00 60 1017.9
20260504021033 71 131 1.7 7.0 0.00 0.00 0.00 60 1017.9
20260504020533 71 150 1.7 6.1 0.00 0.00 0.00 60 1017.8
20260504020037 71 168 2.6 6.1 0.00 0.00 0.00 60 1017.7
20260504015533 72 166 1.7 7.8 0.00 0.00 0.00 59 1017.7
20260504015038 72 164 3.5 7.8 0.00 0.00 0.00 59 1017.6
20260504014541 72 113 1.7 7.8 0.00 0.00 0.00 59 1017.7
20260504014033 72 129 2.6 8.7 0.00 0.00 0.00 59 1017.5
20260504013533 72 129 3.5 10.4 0.00 0.00 0.00 59 1017.6
20260504013038 72 132 2.6 7.8 0.00 0.00 0.00 59 1017.7
20260504012533 72 130 3.5 10.4 0.00 0.00 0.00 59 1017.6
20260504012035 72 124 4.3 9.6 0.00 0.00 0.00 59 1017.6
20260504011532 72 163 4.3 7.8 0.00 0.00 0.00 59 1017.5
20260504011031 72 123 2.6 10.4 0.00 0.00 0.00 59 1017.5
20260504010531 73 138 4.3 11.3 0.00 0.00 0.00 58 1017.6
20260504010031 73 148 6.1 11.3 0.00 0.00 0.00 58 1017.5
20260504005531 73 122 2.6 8.7 0.00 0.00 0.00 58 1017.6
20260504005030 73 161 3.5 8.7 0.00 0.00 0.00 58 1017.6
20260504004533 73 126 4.3 9.6 0.00 0.00 0.00 57 1017.6
20260504004030 74 121 5.2 9.6 0.00 0.00 0.00 56 1017.6
20260504003530 74 138 3.5 7.8 0.00 0.00 0.00 56 1017.6
20260504003034 74 139 2.6 10.4 0.00 0.00 0.00 56 1017.8
20260504002529 74 160 4.3 10.4 0.00 0.00 0.00 56 1017.8
20260504002029 74 126 5.2 10.4 0.00 0.00 0.00 56 1017.9
20260504001529 74 132 5.2 10.4 0.00 0.00 0.00 56 1017.8
20260504001030 75 134 7.8 10.4 0.00 0.00 0.00 55 1017.8
20260504000529 75 128 4.3 10.4 0.00 0.00 0.00 55 1017.8
20260504000029 75 176 3.5 9.6 0.00 0.00 0.00 55 1017.8
20260503235528 75 133 4.3 9.6 0.00 0.00 0.00 54 1017.8
20260503235028 75 171 4.3 10.4 0.00 0.00 0.00 54 1017.7
20260503234538 75 80 6.1 13.0 0.00 0.00 0.00 55 1017.6
20260503234029 76 130 7.0 13.0 0.00 0.00 0.00 54 1017.6
20260503233529 76 108 5.2 11.3 0.00 0.00 0.00 54 1017.8
20260503233027 76 90 5.2 10.4 0.00 0.00 0.00 53 1017.8
20260503232526 76 189 4.3 10.4 0.00 0.00 0.00 53 1017.9
20260503232025 76 173 5.2 9.6 0.00 0.00 0.00 54 1017.9
20260503231525 76 185 4.3 11.3 0.00 0.00 0.00 54 1018.0
20260503231024 76 165 6.1 11.3 0.00 0.00 0.00 54 1017.9
20260503230524 76 105 5.2 13.9 0.00 0.00 0.00 54 1018.1
20260503230024 76 135 6.1 13.0 0.00 0.00 0.00 54 1018.0
20260503225525 76 121 6.1 12.2 0.00 0.00 0.00 53 1018.0
20260503225022 77 120 6.1 11.3 0.00 0.00 0.00 53 1018.0
20260503224522 76 163 6.1 11.3 0.00 0.00 0.00 53 1018.2
20260503224022 77 175 6.1 14.8 0.00 0.00 0.00 53 1018.3
20260503223521 77 119 7.8 14.8 0.00 0.00 0.00 52 1018.3
20260503223023 77 142 6.1 11.3 0.00 0.00 0.00 52 1018.2
20260503222521 79 116 5.2 11.3 0.00 0.00 0.00 51 1018.2
20260503222020 78 163 2.6 10.4 0.00 0.00 0.00 52 1018.3
20260503221520 78 70 4.3 12.2 0.00 0.00 0.00 52 1018.3
20260503221020 77 111 7.0 12.2 0.00 0.00 0.00 52 1018.3
20260503220521 77 139 5.2 13.0 0.00 0.00 0.00 53 1018.3
20260503220019 77 82 7.0 12.2 0.00 0.00 0.00 51 1018.4
20260503215518 77 155 5.2 11.3 0.00 0.00 0.00 52 1018.6
20260503215117 77 171 5.2 9.6 0.00 0.00 0.00 50 1018.7
20260503214517 78 98 4.3 14.8 0.00 0.00 0.00 50 1018.8
20260503214021 79 134 6.1 14.8 0.00 0.00 0.00 49 1018.9
20260503213515 78 199 4.3 11.3 0.00 0.00 0.00 49 1019.0
20260503213015 78 121 5.2 12.2 0.00 0.00 0.00 49 1019.1
20260503212515 78 117 7.0 12.2 0.00 0.00 0.00 49 1019.2
20260503212015 78 126 5.2 13.0 0.00 0.00 0.00 50 1019.3
20260503211513 78 132 7.0 13.0 0.00 0.00 0.00 50 1019.4
20260503211013 78 94 8.7 13.0 0.00 0.00 0.00 48 1019.5
20260503210517 78 103 7.0 12.2 0.00 0.00 0.00 48 1019.4
20260503210012 78 94 6.1 12.2 0.00 0.00 0.00 48 1019.4
20260503205512 79 94 6.1 12.2 0.00 0.00 0.00 48 1019.5
20260503205011 80 88 4.3 12.2 0.00 0.00 0.00 46 1019.6
20260503204511 79 124 2.6 13.0 0.00 0.00 0.00 48 1019.6
20260503204010 79 147 6.1 13.0 0.00 0.00 0.00 47 1019.7
20260503203511 79 144 6.1 13.0 0.00 0.00 0.00 47 1019.7
20260503203014 78 178 6.1 13.0 0.00 0.00 0.00 46 1019.7
20260503202509 79 107 6.1 12.2 0.00 0.00 0.00 46 1019.8
20260503202009 80 85 3.5 10.4 0.00 0.00 0.00 47 1020.0
20260503201507 80 167 4.3 12.2 0.00 0.00 0.00 46 1020.2
20260503201007 80 149 5.2 12.2 0.00 0.00 0.00 46 1020.2
20260503200505 79 119 2.6 13.9 0.00 0.00 0.00 46 1020.3
20260503200006 79 112 5.2 13.9 0.00 0.00 0.00 47 1020.4
20260503195506 79 107 6.1 10.4 0.00 0.00 0.00 46 1020.6
20260503195006 78 94 7.0 11.3 0.00 0.00 0.00 47 1020.6
20260503194504 78 48 5.2 11.3 0.00 0.00 0.00 46 1020.7
20260503194004 78 110 7.0 13.0 0.00 0.00 0.00 46 1020.9
20260503193504 78 130 6.1 13.9 0.00 0.00 0.00 46 1020.9
20260503193003 80 136 4.3 13.0 0.00 0.00 0.00 45 1020.7
20260503192504 79 159 6.1 11.3 0.00 0.00 0.00 45 1020.8
20260503192005 79 69 7.0 13.0 0.00 0.00 0.00 46 1021.0
20260503191502 79 51 5.2 12.2 0.00 0.00 0.00 46 1021.0
20260503191003 78 125 6.1 12.2 0.00 0.00 0.00 46 1021.0
20260503190503 78 124 7.0 13.0 0.00 0.00 0.00 47 1021.0
20260503190001 78 158 2.6 13.9 0.00 0.00 0.00 46 1021.1
20260503185601 79 131 4.3 14.8 0.00 0.00 0.00 46 1021.2
20260503185100 78 111 7.0 13.9 0.00 0.00 0.00 46 1021.3
20260503184601 78 112 4.3 13.0 0.00 0.00 0.00 46 1021.4
20260503184104 78 98 6.1 13.0 0.00 0.00 0.00 47 1021.5
20260503183559 78 86 6.1 13.0 0.00 0.00 0.00 46 1021.5
20260503183115 78 129 7.0 14.8 0.00 0.00 0.00 46 1021.6
20260503182559 78 75 6.1 12.2 0.00 0.00 0.00 46 1021.7
20260503182058 78 101 6.1 13.0 0.00 0.00 0.00 45 1021.7
20260503181601 78 63 6.1 11.3 0.00 0.00 0.00 47 1021.8
20260503181058 78 117 7.8 13.0 0.00 0.00 0.00 47 1022.0
20260503180559 78 34 7.0 13.0 0.00 0.00 0.00 48 1022.1
20260503180058 78 107 7.8 12.2 0.00 0.00 0.00 47 1022.1
20260503175557 78 79 6.1 12.2 0.00 0.00 0.00 51 1022.1
20260503175056 78 118 4.3 14.8 0.00 0.00 0.00 53 1022.3
20260503174557 77 38 8.7 14.8 0.00 0.00 0.00 53 1022.3
20260503174056 78 128 4.3 11.3 0.00 0.00 0.00 52 1022.3
20260503173556 78 90 5.2 12.2 0.00 0.00 0.00 53 1022.4
20260503173117 77 69 7.0 17.4 0.00 0.00 0.00 52 1022.4
20260503172559 78 84 8.7 17.4 0.00 0.00 0.00 51 1022.3
20260503172054 78 73 5.2 11.3 0.00 0.00 0.00 50 1022.4
20260503171553 77 55 5.2 13.9 0.00 0.00 0.00 51 1022.5
20260503171053 78 93 6.1 13.9 0.00 0.00 0.00 50 1022.5
20260503170552 78 123 3.5 10.4 0.00 0.00 0.00 50 1022.6
20260503170153 77 103 5.2 11.3 0.00 0.00 0.00 50 1022.5
20260503150538 75 38 2.6 8.7 0.00 0.00 0.00 54 1022.8
20260503131014 66 348 1.7 4.3 0.00 0.00 0.00 73 1021.9
20260503130513 65 10 1.7 3.5 0.00 0.00 0.00 74 1021.7
20260503110502 59 34 0.9 1.7 0.00 0.00 0.00 79 1021.0
20260503100106 59 36 0.0 1.7 0.00 0.00 0.00 79 1021.0
20260503081548 60 45 0.0 1.7 0.00 0.00 0.00 78 1021.1
20260503081047 60 45 0.0 0.0 0.00 0.00 0.00 77 1021.2
20260503080550 60 45 0.0 0.0 0.00 0.00 0.00 77 1021.2
20260503072542 62 45 0.0 0.0 0.00 0.00 0.00 74 1021.1
20260503072041 62 45 0.0 0.0 0.00 0.00 0.00 74 1021.2
20260503071542 62 45 0.0 0.0 0.00 0.00 0.00 73 1021.3
20260503071039 62 45 0.0 0.0 0.00 0.00 0.00 73 1021.3
20260503070538 62 45 0.0 0.0 0.00 0.00 0.00 72 1021.4